Grygla, Minnesota
Current Conditions -  °F | °C
As of 1:35 AM on Wednesday 22 Oct 2014 (Local Time) from KTVF Reporting Station
Clear Clear  
Wind Chill: 52°   Ceiling: Unl
Heat Index: 52°   Visibility: 10mi
Dew Point: 39°   Wind: 15mph
Humidity: 62%   Direction: 150°SSE
Pressure: 29.92"   Gusts: 21mph
Location:  48.3°N, 95.62°W
Report Text: KTVF 220635Z AUTO 15013G18KT 10SM CLR 11/04 A2992 RMK AO1
Loading
Personal Weather Stations






























Interactive Weather Map
Tropical Storm Tracking
New forecast layout! Learn more

10-Day Weather Forecast

Advertisements
Track Severe Weather on mobile